Location: ?????????
(54.7630°N, 39.4991°E)
Time: 05:58:57
(UTC+00:00)

Helios 1B rocket - Pass Details

Date: 14 April 2026
Orbit: 462 x 468 km, 98.2° (Epoch: 10 May)

Event Time Altitude Azimuth Distance (km) Brightness Sun altitude
Exits shadow 18:23:21 14° 75° (ENE) 1,397 4.1 -15.5°
Maximum altitude 18:24:16 15° 57° (ENE) 1,339 4.2 -15.6°
Drops below altitude 10° 18:26:23 10° 19° (NNE) 1,645 5.1 -15.8°
Sets 18:29:04 0° 357° (N) 2,530 6.5 -16.1°
